GFSCGP_prec_cthk_021.txt.gz
RH
37 39 41 40 39 37 37 38 39 39 39 38 39 39 39 39 38 38 38 36 36 35 35 33 32 32 31 30 30 30 31 31 32 35 36 39 42 46 47 48 49 50 50 50
42 43 43 42 42 42 42 42 42 43 42 42 41 40 40 38 37 38 40 40 38 37 37 35 35 34 33 31 30 30 30 31 31 32 35 37 40 43 45 44 44 44 46 47
46 46 47 46 47 46 46 46 46 46 44 45 43 42 39 40 41 41 43 43 41 38 37 36 36 35 35 35 34 34 33 33 34 35 37 39 40 41 44 45 46 46 47 46
53 50 50 49 47 47 48 46 46 47 47 50 43 46 37 40 45 47 47 44 42 39 36 35 34 34 35 35 35 36 35 34 35 37 38 39 41 40 40 40 40 40 39 40
52 50 50 50 50 50 50 49 48 45 46 45 44 46 39 40 45 47 46 44 43 41 39 35 35 35 37 39 37 36 36 36 35 36 38 41 42 43 43 44 42 39 38 38
52 49 49 48 49 51 48 47 51 54 52 58 45 47 45 42 42 45 48 48 48 46 42 37 37 35 36 38 39 39 40 41 40 40 40 44 43 45 47 47 48 47 45 41
53 51 49 50 51 49 48 52 63 68 68 63 54 53 43 42 44 47 49 51 50 48 46 41 37 39 40 41 42 45 45 46 49 51 49 47 45 44 44 46 47 44 41 39
61 62 53 52 52 55 52 53 65 68 73 64 57 58 46 48 48 48 51 51 49 44 39 40 43 45 46 46 50 52 54 53 54 52 50 49 45 37 38 38 35 32 26 25
71 68 58 54 53 55 58 58 58 69 79 80 62 54 52 53 52 51 50 46 43 43 42 43 47 50 54 59 60 63 58 55 49 53 50 44 42 36 34 32 37 33 28 27
65 70 62 58 56 58 60 61 72 76 82 87 63 56 51 48 47 44 44 44 44 45 47 53 60 62 61 61 60 59 54 47 42 39 40 34 34 34 39 38 37 32 30 26
66 66 64 58 55 53 57 60 59 63 69 73 69 47 42 40 41 43 42 44 46 48 48 50 50 48 46 42 39 32 29 26 24 22 20 19 18 17 19 20 23 30 28 20
66 66 73 64 59 56 51 53 56 65 63 70 70 51 49 44 44 44 47 49 52 54 56 54 49 40 32 26 27 29 28 28 27 25 24 22 21 20 18 18 19 19 19 19
71 74 78 73 66 61 62 60 60 66 71 72 72 58 50 51 56 52 52 51 51 48 44 37 30 26 26 28 33 36 35 34 33 31 28 27 28 27 25 24 23 22 21 19
80 79 74 67 66 63 66 62 62 66 79 67 63 58 60 57 53 50 47 44 39 33 27 25 26 28 31 36 40 40 38 37 35 32 32 30 29 29 28 27 26 24 22 19
85 82 79 72 69 71 65 62 66 72 67 72 60 56 49 48 44 43 40 32 23 22 24 26 28 30 34 39 43 40 39 36 32 32 32 33 35 35 34 33 29 25 22 20
83 85 82 80 78 77 79 71 73 69 83 88 81 63 42 38 31 25 20 20 24 25 26 28 29 33 37 41 41 39 36 34 36 37 39 39 38 37 35 34 33 30 27 23
87 89 86 85 79 84 83 63 63 65 63 59 50 32 28 20 20 22 24 26 27 26 25 25 27 31 35 36 38 37 39 42 42 42 40 40 42 43 44 44 41 36 29 23
88 90 92 93 88 93 57 53 49 47 37 32 28 25 23 23 25 26 25 25 25 24 25 27 29 31 34 36 38 37 39 40 43 45 46 48 50 52 52 49 42 34 26 23
80 87 92 93 90 72 55 47 42 37 31 25 22 25 28 30 28 26 29 27 26 27 27 28 31 33 36 36 36 37 40 43 46 50 54 58 60 59 59 51 41 30 27 26
83 84 85 86 86 76 41 38 33 26 31 20 24 30 31 31 38 28 28 29 28 29 33 34 35 34 34 34 36 40 44 49 53 58 63 66 67 67 61 48 36 30 27 25
81 81 75 74 76 61 40 34 27 36 25 25 28 28 32 33 29 27 29 30 31 34 33 34 34 33 33 36 39 42 46 52 59 64 70 71 70 66 55 41 31 29 28 25
56 55 55 58 66 60 28 32 34 30 33 34 34 34 34 31 30 31 32 36 37 35 35 36 36 37 39 42 46 50 54 61 65 69 72 72 70 64 53 38 32 32 31 28
42 35 37 36 37 30 32 33 35 37 38 40 39 37 36 35 34 36 37 39 40 39 40 41 43 47 49 50 52 57 60 63 66 69 70 69 65 59 49 39 36 36 35 31
29 25 28 30 28 33 39 44 47 46 42 41 39 40 40 40 41 41 40 40 40 41 47 51 53 56 57 55 56 59 61 63 65 66 69 69 63 58 47 40 42 42 39 34
24 26 30 33 32 40 53 55 48 45 42 41 41 44 43 43 41 42 41 43 48 53 59 61 62 60 59 59 60 62 63 62 65 66 68 68 63 55 45 43 47 45 40 35
23 23 33 42 42 58 61 53 50 46 41 41 42 43 42 44 44 46 49 52 60 62 64 63 61 60 62 63 66 65 63 67 71 73 72 71 65 53 47 50 52 48 40 38

GFSCGP_prec_cthk_024.txt.gz
RH
36 36 37 38 37 38 39 39 39 37 37 36 36 37 36 36 36 37 37 35 34 33 32 31 31 32 32 31 30 29 30 31 34 34 36 40 44 43 45 45 46 51 51 52
37 37 36 37 39 41 42 43 42 41 40 39 39 39 37 37 38 38 37 36 35 35 36 35 33 33 33 33 31 32 32 32 33 33 34 39 41 43 45 45 44 45 47 49
42 42 42 42 42 44 47 47 45 43 42 42 42 42 38 40 41 40 38 38 38 37 36 36 34 33 33 32 33 32 32 33 34 35 35 37 39 43 45 44 42 41 42 45
50 46 47 49 49 49 48 45 45 45 48 53 43 47 36 36 40 41 40 39 40 39 37 34 33 33 34 34 36 37 36 35 35 36 36 36 35 35 36 38 41 42 41 42
54 52 53 52 50 49 49 49 50 50 51 46 43 47 37 36 39 42 43 42 41 39 39 37 36 35 35 34 34 36 37 37 38 37 38 42 42 41 41 41 40 42 45 47
56 53 53 51 51 51 51 51 53 52 50 56 45 46 42 40 38 41 42 41 40 40 42 44 41 39 38 36 35 36 39 40 41 42 41 41 41 45 45 45 44 44 44 44
57 56 53 51 51 51 52 54 62 67 67 60 50 49 42 41 42 43 44 46 46 47 47 48 45 42 40 38 37 40 42 44 44 45 47 48 47 46 44 44 43 38 36 38
63 63 56 54 52 54 54 55 66 68 72 64 56 56 44 47 48 46 48 47 47 47 45 46 42 39 40 40 42 45 49 50 49 48 49 47 46 46 42 38 38 36 33 35
67 64 58 55 55 55 57 57 57 67 75 73 59 55 52 50 49 48 45 46 44 42 40 40 40 41 42 46 50 51 53 54 53 49 44 42 46 50 40 33 28 24 26 25
66 69 63 60 58 58 56 55 63 70 72 80 59 55 54 50 46 45 44 42 40 41 42 45 49 51 53 55 57 56 51 46 43 43 43 39 33 28 22 18 16 15 15 15
69 69 70 64 62 61 64 63 63 62 70 72 68 53 47 46 47 47 46 46 46 47 50 52 55 54 51 49 47 46 46 43 36 30 23 20 20 19 19 18 19 20 19 19
73 77 79 68 65 62 58 56 57 64 66 70 71 51 53 49 48 50 47 49 51 53 55 59 59 56 55 52 44 40 33 27 26 26 25 26 26 25 24 24 24 23 22 21
76 79 87 79 71 69 64 60 58 62 65 70 78 61 54 54 54 53 54 55 56 55 54 56 52 46 35 31 29 29 30 32 34 33 31 30 29 30 30 29 28 27 26 24
78 79 74 73 70 67 71 67 67 68 79 72 70 64 61 60 60 62 61 57 55 51 49 47 41 33 27 28 31 33 36 38 38 35 31 32 32 32 31 31 30 30 28 25
86 88 84 77 75 76 70 66 68 72 69 74 58 66 64 62 59 60 61 56 54 48 42 35 29 26 27 29 32 35 40 41 38 34 32 31 32 33 33 34 33 32 30 29
92 97 93 91 87 83 79 68 73 71 70 71 76 69 60 58 67 67 59 48 36 27 23 25 25 24 24 26 31 37 41 39 35 33 33 35 36 38 37 36 36 36 37 36
95 97 97 93 90 85 86 68 67 67 67 65 75 63 71 69 55 40 31 24 24 27 26 24 22 23 25 28 34 39 38 36 35 34 33 35 38 39 39 40 42 44 43 41
92 93 96 96 94 96 61 55 61 70 69 70 72 69 57 42 32 26 26 27 26 23 23 24 24 24 27 31 33 35 36 37 36 36 37 40 41 42 45 47 49 51 51 46
92 94 97 97 95 85 64 56 56 59 54 52 57 46 39 32 26 25 25 25 24 25 27 27 26 26 27 30 32 35 37 37 38 38 42 44 47 49 53 57 59 60 55 46
93 96 98 97 96 93 58 55 58 58 55 43 38 31 26 24 26 22 25 25 26 27 28 28 29 30 32 34 33 34 34 36 37 40 44 49 53 60 64 66 62 62 56 43
95 95 94 96 96 89 69 63 58 63 47 31 26 26 27 27 25 25 26 28 29 30 30 31 33 32 33 34 34 34 36 36 40 45 51 57 64 67 66 66 65 63 55 43
84 93 91 94 93 84 55 49 43 35 28 23 24 24 25 26 28 29 30 32 32 31 32 35 36 36 37 37 38 38 40 43 46 53 57 61 67 68 69 67 69 63 52 40
69 64 65 62 53 40 33 29 27 26 25 26 27 29 30 31 31 31 31 32 33 33 37 40 40 38 39 41 43 47 49 50 52 57 62 64 70 70 69 72 70 63 53 46
54 45 43 40 36 34 33 31 29 29 32 34 34 34 34 33 31 31 32 33 36 37 40 42 42 43 47 53 57 56 55 56 58 62 67 67 69 73 74 73 73 66 56 51
39 35 37 34 28 29 29 31 38 42 39 38 37 38 36 35 32 33 32 31 33 36 42 47 49 52 57 64 64 62 62 63 67 69 66 64 69 78 78 75 75 67 59 57
27 25 27 31 24 30 35 42 51 49 43 42 38 35 31 31 29 30 29 32 36 40 42 45 52 58 61 62 64 68 68 71 68 64 66 72 77 79 73 72 73 65 59 59

GFSCGP_prec_cthk_030.txt.gz
RH
30 30 29 31 31 30 31 32 31 32 34 34 34 33 35 34 33 33 34 34 35 34 32 31 31 30 30 30 33 35 37 37 40 42 41 40 38 39 42 44 42 40 40 42
33 32 32 33 33 34 34 34 32 33 35 35 34 34 35 36 34 33 34 35 35 34 34 32 30 30 32 32 36 39 39 38 39 40 40 40 38 38 38 38 39 38 38 37
34 33 33 34 37 38 37 37 35 38 39 39 39 38 37 36 35 35 35 35 36 35 34 32 31 31 31 31 31 32 34 37 41 44 45 44 42 38 36 35 35 36 37 38
37 37 39 39 38 40 41 42 43 43 44 45 44 42 37 34 35 35 34 34 34 35 34 33 32 31 31 32 31 33 33 33 37 38 38 37 38 39 39 38 38 38 39 40
42 44 45 43 41 46 48 48 49 50 52 52 47 48 36 36 33 34 34 34 35 35 33 32 32 32 32 32 33 33 33 34 34 33 33 35 36 39 41 39 38 37 36 37
52 51 49 48 48 49 52 54 56 56 56 56 47 47 39 33 31 33 36 36 35 34 33 33 33 32 32 32 31 32 31 33 35 34 33 38 38 39 39 40 38 38 40 40
54 52 51 52 55 55 53 56 63 64 64 57 49 50 38 35 34 34 35 37 38 37 34 33 33 33 34 33 33 34 35 39 39 37 37 40 39 40 39 40 42 42 38 36
60 58 53 51 54 57 58 57 61 70 63 53 58 50 39 39 39 39 39 39 39 37 34 35 35 35 36 35 36 38 41 41 39 40 41 41 39 40 40 42 41 43 41 37
60 60 54 53 56 59 59 59 58 64 72 65 50 46 43 43 41 41 41 40 38 39 38 38 38 38 37 37 38 37 38 42 45 44 43 40 41 43 44 44 40 38 33 26
59 63 62 60 60 62 60 59 66 64 74 71 51 50 42 45 44 43 42 41 42 41 40 40 39 38 38 38 39 41 44 45 43 44 43 44 46 46 44 39 38 29 22 21
68 70 71 65 61 60 66 63 64 63 64 66 58 47 44 44 44 44 43 44 44 44 43 43 42 41 40 41 44 47 46 46 47 48 49 47 47 45 42 39 29 25 24 24
71 77 78 69 68 68 65 62 65 66 71 63 65 50 49 48 47 46 47 48 48 49 48 47 47 45 46 47 50 49 51 50 52 50 46 42 42 40 36 30 28 29 28 27
72 82 89 80 73 73 67 65 62 63 70 70 72 53 54 50 49 49 49 52 54 54 52 50 50 52 52 53 53 56 55 54 50 45 39 37 35 33 33 33 35 34 30 30
73 79 71 67 62 63 69 67 66 67 70 61 55 57 57 54 55 55 56 57 57 55 54 54 55 55 56 57 59 61 57 53 45 39 32 29 31 34 37 40 38 33 33 35
77 80 74 66 68 71 67 65 68 67 57 67 54 56 58 60 61 63 65 58 59 57 57 57 57 58 62 63 64 60 52 40 37 32 31 32 34 36 40 40 35 37 36 36
83 84 85 85 78 78 78 73 70 69 67 65 63 56 60 64 70 71 66 64 64 60 58 60 59 63 64 60 53 49 40 38 34 30 30 34 37 41 43 38 38 38 40 41
92 94 98 93 91 92 94 70 73 71 68 69 71 60 71 73 73 70 67 66 65 63 62 60 64 60 49 43 39 35 34 30 30 33 36 40 42 43 39 40 41 44 45 47
94 97 99 97 98 96 68 73 72 75 75 76 77 76 78 76 74 69 68 66 64 65 64 57 45 41 38 31 27 26 26 26 30 34 38 42 43 39 41 45 45 47 48 49
96 95 99 98 94 88 75 68 79 83 75 76 74 74 74 73 71 63 63 63 60 51 42 37 34 29 25 24 24 23 25 28 32 34 36 38 40 42 40 39 42 46 49 52
98 98 98 97 96 92 69 73 73 73 72 70 72 76 73 69 67 59 57 49 42 37 30 26 24 23 23 23 23 24 26 27 28 31 34 33 30 32 34 38 41 47 51 54
97 98 97 97 96 92 78 70 71 79 75 69 72 72 68 65 57 49 41 36 32 26 24 24 24 24 23 23 23 24 27 28 28 26 25 26 29 33 37 42 48 54 55 56
92 96 96 97 97 94 80 74 77 78 73 70 69 62 58 50 43 37 32 29 27 27 25 25 25 23 23 24 26 27 26 24 25 27 30 34 38 40 44 47 51 54 59 61
95 94 96 94 92 84 80 78 76 78 73 62 56 52 45 41 35 29 29 30 28 27 26 23 22 22 25 26 24 24 26 29 31 34 37 43 45 46 48 50 51 53 55 56
88 85 87 88 84 80 81 83 75 73 70 56 47 40 35 33 32 31 31 32 30 26 24 23 24 25 23 23 25 28 31 32 35 39 43 45 47 47 47 46 48 48 47 47
80 78 80 80 77 76 79 79 72 63 52 44 42 40 36 35 33 32 32 30 28 25 25 23 21 21 22 26 29 31 32 34 38 43 47 47 46 44 44 47 48 48 48 49
70 71 73 77 72 71 65 61 59 54 47 41 37 35 35 36 36 35 31 30 29 26 23 23 24 26 27 30 33 33 34 37 40 43 44 45 45 44 45 48 51 50 51 53

GFSCGP_prec_cthk_033.txt.gz
RH
26 26 24 26 28 28 28 30 30 32 32 33 32 32 32 31 32 33 33 33 31 32 31 32 31 29 29 30 32 34 34 35 35 38 40 40 39 39 38 38 40 36 35 37
30 29 28 30 31 32 32 33 32 33 33 34 32 31 31 31 30 33 33 33 32 32 32 32 31 31 30 32 35 35 35 35 34 34 34 35 37 38 38 36 33 34 34 33
33 32 32 33 34 35 34 34 34 37 37 37 36 33 32 32 33 34 35 33 32 32 32 33 32 31 31 33 35 37 38 36 36 37 37 38 36 35 33 32 32 31 32 33
34 34 33 35 35 36 37 37 38 39 42 44 42 40 34 34 37 36 35 34 33 33 32 33 33 32 31 33 36 37 36 36 38 39 39 36 33 29 28 29 30 32 32 31
33 35 36 39 41 43 44 43 42 44 47 50 49 50 36 36 36 35 36 36 34 33 33 34 34 32 33 34 34 35 36 37 37 37 34 30 30 30 30 30 32 33 32 33
37 40 42 45 48 49 50 51 51 52 54 59 49 51 38 37 36 35 36 36 35 35 35 35 33 32 33 34 34 34 33 33 33 33 32 32 32 33 34 33 33 32 32 33
44 47 50 52 54 54 53 56 63 64 64 57 47 50 39 38 36 35 36 36 35 34 34 34 33 33 32 32 32 32 32 32 32 33 35 36 36 36 34 33 34 34 33 33
57 57 53 51 51 55 55 56 62 74 65 55 56 49 39 38 40 38 37 37 37 36 35 35 33 32 32 32 32 33 33 34 36 38 38 37 37 35 36 37 36 36 37 36
60 60 55 53 53 56 56 59 57 66 76 68 50 44 40 41 42 41 41 40 38 36 36 35 34 33 33 34 35 34 36 37 39 38 39 39 37 37 38 40 40 39 37 38
58 60 59 60 56 55 56 58 67 66 82 74 49 47 43 45 43 44 44 42 41 39 37 36 35 35 36 36 36 37 38 40 41 43 42 38 37 39 42 44 46 45 43 41
63 61 65 62 58 56 62 64 64 63 64 68 61 47 42 44 43 44 45 43 42 40 39 40 39 38 38 37 37 39 41 42 44 44 41 41 41 45 47 48 44 41 38 34
64 67 67 63 62 62 62 62 65 68 71 66 63 49 48 47 45 44 43 44 43 43 43 41 42 43 42 40 41 40 43 47 47 43 45 47 48 48 49 48 41 37 33 31
67 76 85 78 73 71 68 63 62 64 71 70 76 51 54 52 50 49 47 47 47 46 45 47 47 46 44 44 44 44 47 50 49 50 52 53 49 46 43 37 33 33 32 32
69 74 75 70 66 66 66 65 66 69 72 59 55 54 55 54 53 52 52 52 51 50 51 52 53 51 49 48 49 48 51 54 56 57 57 51 43 37 32 31 32 34 35 34
75 81 80 71 70 74 72 70 69 69 53 69 44 55 57 57 58 55 55 55 54 58 61 60 57 55 55 54 54 54 57 60 61 59 51 42 36 32 31 32 33 35 38 38
82 86 88 84 76 80 81 76 67 64 63 64 56 52 63 59 61 60 61 61 62 66 65 64 61 59 60 60 60 60 64 66 62 51 48 39 33 30 31 33 36 41 39 37
91 94 98 91 87 92 95 59 73 64 63 63 66 50 69 70 67 67 68 70 72 70 68 67 65 63 64 64 65 65 68 56 50 48 42 34 31 32 33 35 39 43 39 38
93 98 98 94 99 97 59 65 64 68 64 65 65 69 74 73 73 74 76 78 77 74 71 69 67 67 65 68 65 59 51 46 42 35 29 30 31 32 34 37 42 40 36 36
94 97 98 98 95 78 66 61 66 71 58 64 65 75 77 78 82 82 85 79 75 72 69 66 68 70 68 59 51 46 39 33 28 26 27 29 32 34 37 39 34 32 34 35
97 97 98 98 98 94 55 64 68 73 74 69 72 78 76 80 87 81 76 75 73 69 68 67 63 53 47 43 36 32 29 26 24 25 26 28 32 34 32 28 29 30 33 35
91 96 97 97 98 95 78 71 76 89 76 70 74 75 77 76 76 75 74 69 66 63 57 52 47 40 37 34 31 27 25 25 26 26 26 26 25 23 24 25 27 31 36 40
90 97 96 98 98 96 80 77 80 78 71 71 74 75 76 77 73 67 62 58 51 46 42 39 36 33 32 30 27 26 25 25 26 25 22 20 21 24 27 30 33 36 40 43
96 91 95 95 92 86 81 80 84 83 82 80 77 75 71 65 60 52 46 42 40 37 35 33 34 32 32 29 27 25 24 24 23 22 22 24 26 29 32 37 40 42 42 38
94 97 97 98 97 97 94 94 89 88 80 71 63 60 57 51 46 41 39 37 36 37 37 35 32 29 28 27 24 23 23 21 22 25 26 28 31 34 38 41 42 40 38 40
92 97 97 97 93 90 97 97 91 80 76 69 60 53 47 44 41 39 38 38 36 35 34 31 29 26 24 25 23 21 22 24 27 29 31 33 37 39 42 43 42 43 42 45
82 83 86 94 88 93 90 86 77 70 63 57 52 48 44 40 39 38 38 38 37 34 31 27 25 25 23 22 24 26 28 31 34 36 38 42 44 45 48 48 49 48 50 52

GFSCGP_prec_cthk_036.txt.gz
RH
22 24 24 22 24 23 26 28 30 29 31 31 32 30 29 30 30 30 30 30 31 32 32 30 29 30 30 31 31 33 34 33 33 35 39 40 39 39 39 38 36 34 33 32
27 27 23 25 27 29 30 31 32 31 34 33 32 30 28 29 27 28 29 29 30 33 33 31 30 30 31 31 34 35 34 34 35 40 41 40 39 39 39 36 33 29 30 29
27 25 26 29 31 34 34 35 35 36 38 35 34 33 30 29 29 27 28 31 31 33 34 32 31 31 31 32 36 36 36 37 38 39 39 39 39 38 35 31 27 26 26 27
31 30 31 32 34 35 37 35 37 38 41 44 38 46 32 30 31 31 31 32 33 33 33 33 32 33 33 35 37 38 37 38 38 38 39 40 37 35 31 27 26 26 26 28
32 30 32 33 31 35 37 38 42 43 47 50 47 52 35 30 31 31 35 36 34 33 33 32 32 33 34 36 37 39 38 37 38 37 37 37 36 31 27 28 29 29 28 28
32 33 32 32 34 37 40 46 51 54 55 66 50 51 45 34 31 32 35 36 36 35 34 33 33 34 35 35 38 39 38 38 37 37 37 34 31 30 31 31 31 30 30 30
35 36 35 35 39 41 46 55 70 75 74 68 48 55 43 38 35 34 36 37 37 36 34 34 34 34 34 35 37 37 36 36 36 34 31 31 32 33 32 34 32 31 32 33
41 45 38 37 39 50 56 60 74 75 76 68 53 53 42 38 40 38 38 38 38 37 36 36 34 33 33 34 34 33 34 34 33 31 31 32 33 33 35 35 34 34 35 37
50 56 54 55 54 56 59 63 59 70 72 74 58 47 41 40 40 42 41 41 40 39 37 36 34 33 33 33 33 33 33 32 32 32 33 33 35 37 36 36 37 37 38 40
57 64 61 60 60 61 61 59 69 70 78 78 57 51 47 45 43 44 44 43 42 42 40 38 36 35 34 34 33 33 34 34 35 35 35 37 40 39 38 37 39 41 43 43
61 67 69 64 61 59 64 64 64 65 71 80 71 51 41 44 44 44 45 46 45 43 42 42 40 38 36 36 36 35 36 37 37 37 39 42 42 40 39 41 44 47 47 46
60 70 80 68 64 62 62 63 61 70 70 64 70 44 44 46 47 47 47 47 47 46 44 42 41 40 39 38 38 39 39 39 40 42 44 45 43 43 45 47 50 51 46 40
63 80 90 82 73 68 64 60 61 63 69 59 75 47 48 48 49 50 52 51 51 50 48 46 44 41 43 44 43 43 44 45 45 46 48 47 47 49 51 53 53 48 39 32
70 80 75 72 62 69 69 66 66 67 67 67 56 52 52 53 56 56 54 54 54 53 51 49 47 48 48 49 50 51 50 49 49 49 52 51 53 55 57 57 51 35 32 32
78 87 81 70 68 72 72 71 71 71 60 73 46 57 53 56 58 56 55 56 55 56 55 53 53 54 56 57 59 56 54 53 53 54 56 56 59 61 62 54 40 33 33 34
81 85 85 83 77 81 82 77 71 75 71 68 58 51 61 58 59 60 58 60 59 61 60 61 60 60 62 65 64 61 60 58 60 58 61 62 65 67 55 46 39 33 35 36
91 94 96 86 80 89 96 59 75 74 70 68 69 46 65 66 64 65 65 64 65 65 64 63 63 67 69 69 68 68 66 65 62 64 67 68 72 59 49 43 35 33 35 37
93 97 99 91 97 98 53 61 64 71 67 69 64 56 64 65 66 66 64 65 69 68 68 69 73 76 76 73 72 71 69 66 68 72 74 70 59 49 43 35 34 34 37 38
94 96 98 98 93 81 64 62 67 76 62 64 65 62 66 67 70 66 66 67 71 72 74 77 85 82 78 75 72 71 71 72 73 71 64 55 44 36 34 34 36 37 38 37
98 96 98 98 97 93 56 60 65 74 68 59 63 61 68 70 74 68 73 75 77 79 83 89 81 76 74 73 73 74 76 74 61 51 41 34 32 33 35 36 36 34 32 29
94 97 97 95 98 94 75 69 76 88 63 64 66 65 70 72 71 76 80 81 86 88 82 78 74 74 73 72 73 68 57 45 37 33 31 32 32 31 32 31 28 26 26 25
93 97 98 98 98 96 78 77 85 79 71 73 72 72 75 76 79 79 83 82 81 81 78 74 72 68 65 56 49 41 35 34 33 33 32 29 27 26 24 22 21 22 25 29
98 97 98 98 96 90 83 83 81 79 76 76 77 79 80 79 79 81 81 77 71 66 60 57 50 44 40 37 35 36 34 33 31 30 29 27 24 22 20 21 25 29 32 35
97 98 98 98 96 94 93 90 88 88 87 89 87 84 83 80 77 70 62 58 56 51 46 43 41 40 39 38 35 33 33 31 30 28 25 24 23 23 25 28 32 35 37 40
97 98 97 97 97 97 96 98 95 95 88 81 74 68 65 63 61 58 53 50 48 45 43 41 39 37 36 34 34 32 30 28 26 25 24 25 28 31 35 38 41 42 45 48
92 96 97 97 97 97 93 91 91 87 79 74 72 65 61 57 53 50 48 46 44 43 43 42 42 38 36 34 31 31 29 27 26 25 27 30 35 39 44 46 50 54 57 58